Location: Unspecified
(0.0000°N, 0.0000°E)
Time: 00:07:55
(UTC+00:00)

ISS - Pass Details

Date: 14 February 2020
Orbit: 415 x 422 km, 51.6° (Epoch: 27 February)

Event Time Altitude Azimuth Distance (km) Brightness Sun altitude
Rises 18:36:03 0° 313° (NW) 2,352 0.6 -5.3°
Reaches altitude 10° 18:38:14 10° 305° (NW) 1,490 -0.3 -5.9°
Maximum altitude 18:41:22 38° 235° (SW) 650 -2.1 -6.6°
Drops below altitude 10° 18:44:31 10° 164° (SSE) 1,492 -1.0 -7.4°
Sets 18:46:42 0° 156° (SSE) 2,355 -0.1 -7.9°
